Date,TemperatureHighF,TemperatureAvgF,TemperatureLowF,DewpointHighF,DewpointAvgF,DewpointLowF,HumidityHigh,HumidityAvg,HumidityLow,PressureMaxIn,PressureMinIn,WindSpeedMaxMPH,WindSpeedAvgMPH,GustSpeedMaxMPH,PrecipitationSumIn
2013-3-1,74.7,57.9,43.6,53.6,45.9,38.4,84,66,45,30.04,29.86,0,0,0,0.00
2013-3-2,75.4,61.2,47.9,55.1,49.0,41.9,82,65,47,29.87,29.67,0,0,0,0.00
2013-3-3,68.8,59.4,50.0,55.3,49.6,44.3,81,70,58,29.70,29.62,0,0,0,0.00
2013-3-4,67.7,53.8,44.5,54.7,46.4,40.5,88,77,61,29.76,29.64,0,0,0,0.00
2013-3-5,62.5,52.6,45.0,46.8,43.0,39.2,81,70,53,29.67,29.46,0,0,0,0.07
2013-3-6,61.2,52.4,47.2,47.9,43.2,38.3,88,72,51,29.69,29.47,0,0,0,0.15
2013-3-7,63.0,51.0,41.0,47.0,41.3,36.3,87,70,51,29.63,29.48,0,0,0,0.00
2013-3-8,66.2,51.9,39.1,45.4,40.6,34.2,84,68,40,29.65,29.43,0,0,0,0.00
2013-3-9,72.7,53.8,40.3,48.6,38.8,31.3,88,61,25,29.90,29.65,0,0,0,0.08
2013-3-10,69.8,55.1,41.0,50.2,40.9,31.5,75,60,44,29.99,29.87,0,0,0,0.00
2013-3-11,73.3,57.4,42.7,52.4,44.2,37.2,85,63,42,29.89,29.71,0,0,0,0.00
2013-3-12,78.1,61.0,45.5,54.9,47.4,39.8,85,63,43,29.79,29.68,0,0,0,0.00
2013-3-13,80.1,63.2,47.5,58.6,50.1,41.9,86,64,44,29.80,29.68,0,0,0,0.00
2013-3-14,79.7,63.6,49.7,60.0,51.4,44.4,85,66,47,29.76,29.68,0,0,0,0.00
2013-3-15,77.8,61.7,48.4,56.6,49.3,42.7,83,66,43,29.72,29.62,0,0,0,0.00
2013-3-16,79.9,61.5,45.9,54.4,46.7,40.2,87,62,26,29.69,29.59,0,0,0,0.00
2013-3-17,73.8,59.5,45.7,45.5,41.7,38.3,79,54,31,29.75,29.63,0,0,0,0.00
2013-3-18,71.6,58.7,43.6,49.0,43.3,36.8,82,59,41,29.72,29.63,0,0,0,0.00
2013-3-19,73.6,59.6,48.2,51.5,46.3,40.2,84,63,45,29.76,29.66,0,0,0,0.16
2013-3-20,65.0,57.2,50.9,59.1,52.5,46.8,92,85,74,29.74,29.69,0,0,0,0.28
2013-3-21,69.1,55.7,43.4,51.9,43.3,33.1,92,67,34,29.73,29.61,0,0,0,0.02
2013-3-22,68.8,56.8,46.8,33.2,28.7,24.7,47,36,21,29.71,29.62,0,0,0,0.00
2013-3-23,71.6,56.7,44.6,37.5,31.4,25.9,52,39,26,29.77,29.64,0,0,0,0.00
2013-3-24,76.3,59.2,42.8,47.4,40.3,33.0,71,51,32,29.72,29.56,0,0,0,0.00
2013-3-25,71.8,57.5,47.3,51.0,44.1,38.6,76,62,45,29.62,29.52,0,0,0,0.00
2013-3-26,74.0,58.6,46.6,54.2,46.1,39.8,80,64,46,29.61,29.52,0,0,0,0.00
2013-3-27,72.4,58.8,47.7,55.4,48.1,40.2,79,68,54,29.64,29.55,0,0,0,0.00
2013-3-28,71.6,62.3,55.3,57.4,52.3,48.5,83,71,53,29.71,29.64,0,0,0,0.00
2013-3-29,82.1,65.2,51.3,56.8,51.3,46.2,85,63,40,29.72,29.61,0,0,0,0.00
2013-3-30,77.4,62.9,53.3,58.6,51.6,47.3,83,68,47,29.66,29.57,0,0,0,0.14
2013-3-31,72.9,60.6,56.0,58.9,54.0,49.8,93,80,54,29.72,29.60,0,0,0,0.71